Theta_e
298 296 297 297 297 297 299 303 309 312 315 316 317 317 319 321 321 322 325 328 331 332 332 332 331 332 332 332 331 333 332 334 333 335 336 336 335 332 329 328 328 324 322 322 321 318 318 317 317 315 314 313 314 314 313 309 307 306 305 305 303 301 301 301 302 302 300 300 299 299 298 297 297 297 296 297 298 298 298 299 300 300 298 297 299
295 296 296 294 295 296 296 297 301 304 308 313 315 317 318 319 320 322 323 326 329 331 332 332 333 333 332 332 332 332 331 331 331 333 335 336 336 336 333 331 329 326 323 323 322 321 320 319 317 316 313 312 313 314 313 309 308 307 306 305 303 302 300 299 299 301 299 302 301 300 301 300 298 297 295 296 297 298 298 298 298 299 299 298 298
293 293 293 292 293 294 294 296 297 301 303 308 312 314 315 317 319 320 322 324 327 330 331 331 333 333 333 333 332 330 329 333 334 332 332 334 334 334 334 333 331 328 325 323 322 321 320 319 319 317 312 311 311 312 313 311 310 307 305 304 301 301 300 299 299 302 303 302 301 299 299 300 304 299 299 297 298 297 297 296 297 298 299 299 298
294 294 293 292 292 292 292 293 295 297 300 303 308 311 313 315 318 319 320 322 324 327 328 332 332 330 330 331 329 331 328 322 327 327 331 332 332 332 333 333 333 331 329 325 324 323 321 320 320 318 313 311 312 312 311 310 309 307 306 305 304 299 299 298 300 301 303 301 298 298 298 299 300 304 303 303 300 298 297 296 296 296 298 298 296
293 294 294 293 293 294 294 293 292 296 299 302 305 308 311 313 315 318 319 320 322 324 326 327 326 327 325 321 321 322 319 320 324 325 326 325 330 332 333 333 333 332 331 327 325 325 323 322 320 319 318 314 312 312 311 310 310 309 307 305 304 303 301 301 299 300 302 305 306 296 295 295 299 306 300 301 296 298 298 297 296 296 296 296 296
291 292 293 292 291 292 292 292 292 294 296 300 303 307 310 312 313 315 317 318 320 321 323 325 326 326 323 323 321 321 322 320 320 324 325 324 326 328 328 331 332 332 332 330 327 325 325 323 322 321 319 316 313 314 312 310 310 310 308 306 305 306 307 304 300 298 300 302 305 306 307 308 304 300 303 302 294 294 298 298 297 296 296 295 295
288 287 288 290 293 293 295 295 294 294 295 295 298 303 307 309 312 314 317 317 318 319 320 323 324 325 325 325 326 324 324 325 325 326 327 327 326 326 328 328 329 330 330 331 329 326 326 326 324 323 321 319 315 314 312 311 311 310 309 307 306 306 306 305 303 299 297 299 300 302 303 300 305 300 300 301 299 296 290 293 295 297 296 294 294
289 290 292 293 293 294 296 296 295 296 295 294 296 299 304 307 309 312 314 315 316 318 319 322 323 324 324 324 324 325 324 324 325 324 321 321 324 325 326 327 327 329 330 329 329 328 326 327 326 325 324 322 317 315 315 315 314 311 310 309 307 306 305 305 305 302 296 298 298 299 300 301 301 300 301 303 302 298 302 295 292 294 294 294 293
292 295 296 295 296 296 295 296 296 295 295 296 297 299 301 304 307 309 312 313 313 315 318 319 321 323 323 324 323 323 324 324 316 312 319 318 320 322 323 325 326 327 329 331 331 330 326 326 327 327 326 324 317 317 316 316 313 311 310 309 307 306 305 305 306 306 301 303 302 299 300 299 299 299 298 296 296 297 300 303 302 292 291 291 292
292 292 292 293 293 293 293 293 295 295 294 295 296 298 300 302 305 306 308 310 310 313 316 318 319 320 321 321 321 322 321 317 313 316 314 313 317 319 320 322 324 324 326 328 329 330 330 328 328 329 328 327 321 322 320 318 316 314 312 310 309 307 307 306 307 307 308 306 305 303 298 298 297 298 297 296 295 296 297 300 302 296 293 295 293
292 292 293 293 292 292 292 295 294 296 295 296 297 297 299 302 302 305 305 306 307 312 313 316 317 318 319 319 320 320 319 317 315 313 313 310 313 315 316 318 321 321 322 323 325 326 326 324 325 326 325 321 321 321 320 319 317 315 314 312 309 308 308 309 305 306 306 304 302 301 300 299 298 297 298 299 298 295 293 294 297 300 301 301 299
291 293 295 294 297 297 296 297 295 295 296 296 296 296 297 299 302 304 303 304 305 308 310 313 314 315 316 318 318 318 318 316 316 316 316 315 315 315 314 314 315 318 319 319 320 321 321 324 322 324 323 324 323 322 321 320 319 317 316 314 313 311 311 308 306 305 304 305 303 302 302 302 301 301 302 303 300 298 298 298 300 300 297 297 297
292 294 295 296 296 296 297 297 297 296 295 294 295 295 295 297 299 303 304 301 302 303 307 309 310 312 314 315 316 316 316 316 316 316 316 314 314 312 310 311 313 313 315 316 318 319 320 320 322 323 324 325 325 324 323 321 321 320 319 318 316 314 311 309 307 305 305 304 304 305 304 303 303 303 303 304 303 302 300 298 298 300 299 301 297
292 293 293 294 294 295 294 295 295 296 295 295 294 294 295 296 296 299 300 297 298 301 303 305 307 309 310 312 313 313 313 314 315 315 315 314 313 313 312 312 312 313 314 315 318 319 319 320 320 321 321 322 321 322 323 323 322 321 320 319 316 315 313 310 309 308 308 307 307 306 305 304 304 304 303 302 301 300 298 297 298 298 296 297 293
291 293 294 294 294 294 295 294 295 294 295 295 294 294 294 296 296 298 299 298 297 298 299 302 304 305 306 307 308 309 311 312 312 313 313 312 312 311 312 311 311 312 313 315 315 316 317 318 318 318 319 319 319 319 318 318 318 317 316 315 315 315 313 311 310 309 308 308 307 306 306 305 305 305 304 303 303 302 301 302 300 298 298 296 293
293 295 296 295 294 294 295 295 295 294 294 294 294 294 295 296 294 295 296 297 296 297 298 300 302 302 301 303 305 306 307 308 309 309 309 310 311 311 311 311 311 311 311 310 310 312 314 315 315 316 316 317 317 317 317 315 315 314 314 314 314 312 312 311 311 310 309 308 307 307 306 306 306 306 305 304 304 304 303 304 303 301 297 295 297
294 295 295 296 296 296 295 295 296 295 295 295 295 293 294 294 294 295 294 294 295 296 297 298 299 299 301 301 302 303 304 305 307 308 308 308 308 309 309 310 308 308 309 307 308 307 309 311 313 314 314 314 314 314 315 315 314 314 313 313 312 311 310 310 310 310 310 309 309 308 307 307 307 307 306 304 304 303 304 304 304 301 300 297 295
293 292 292 293 294 294 295 295 294 294 294 294 294 293 293 294 294 295 295 296 296 295 296 296 297 298 299 299 300 301 302 303 304 305 306 305 305 305 305 305 306 307 306 306 305 305 305 303 307 309 310 311 311 311 312 312 312 312 312 313 313 312 310 309 308 308 308 308 308 307 307 306 306 306 306 305 305 305 304 303 302 302 301 299 297
295 294 295 295 294 294 293 294 294 294 294 293 293 294 294 294 294 294 296 295 295 295 295 295 295 297 298 299 299 299 300 301 302 302 302 303 304 304 304 305 305 304 303 303 303 303 302 302 303 304 305 306 307 307 307 307 308 309 309 309 309 308 308 308 309 308 308 308 307 307 307 307 307 307 307 307 305 304 303 301 301 300 299 299 299
294 294 294 293 293 292 292 292 293 293 293 293 293 295 295 294 294 294 295 295 295 295 295 296 296 296 297 296 296 297 298 299 300 300 301 301 302 303 303 302 303 303 302 302 301 301 301 301 301 301 302 302 302 304 304 304 305 306 306 306 307 306 306 306 307 307 307 307 306 305 305 304 305 303 302 301 301 300 300 300 298 299 299 298 299
293 293 293 292 292 292 292 291 291 291 292 293 293 293 294 294 294 293 294 294 295 295 294 295 295 295 294 295 296 296 296 297 297 298 299 300 301 301 301 302 298 300 299 299 300 300 300 300 300 300 300 300 301 301 301 301 302 302 303 304 304 303 304 305 304 304 304 305 304 304 304 304 303 301 301 299 299 299 297 297 297 297 296 296 295
292 293 290 290 290 291 291 292 291 293 293 292 292 293 293 293 293 293 293 294 294 294 294 293 293 293 293 294 294 294 294 294 295 296 296 297 297 298 298 295 297 299 297 299 299 299 299 299 299 299 299 299 299 300 300 299 300 300 301 302 302 302 301 301 300 300 300 300 299 298 299 299 299 299 299 298 298 297 296 296 295 295 295 295 295
292 291 289 289 289 290 290 290 290 290 290 290 291 292 292 292 292 292 292 292 293 293 293 292 292 292 292 291 291 291 291 291 292 294 294 295 295 295 294 295 297 297 295 296 298 297 297 296 296 297 297 297 298 298 298 298 299 299 300 300 301 300 300 299 298 298 299 298 297 297 298 298 299 297 296 297 296 296 296 295 295 295 295 295 295
286 286 288 289 289 290 291 291 291 290 290 290 291 291 291 291 291 291 291 291 291 291 291 291 291 291 291 290 291 290 290 290 290 292 292 293 293 293 292 293 295 294 294 294 293 294 294 294 294 295 295 296 296 296 295 296 298 298 298 299 298 298 299 299 298 298 298 297 296 296 296 296 295 295 295 295 295 295 295 295 295 295 294 295 295
288 289 289 290 290 290 290 290 289 289 289 290 290 290 290 290 290 290 290 290 290 290 290 290 290 290 291 291 291 291 291 291 291 291 291 291 291 291 291 291 292 292 293 293 293 292 292 293 294 295 295 295 295 295 295 295 296 296 297 297 297 297 297 297 297 297 294 296 296 296 296 296 295 294 294 294 294 293 294 293 293 294 293 293 293
287 289 289 290 289 289 289 289 290 289 289 289 289 289 289 289 289 289 289 289 290 289 289 290 290 290 291 291 291 291 291 291 291 291 291 291 291 291 291 291 290 292 292 291 292 292 292 292 293 294 294 295 295 295 295 295 295 295 294 294 295 295 296 296 296 296 296 296 296 296 296 295 295 294 294 294 293 293 293 292 292 292 293 292 292
288 288 288 289 289 289 289 288 288 288 288 289 289 289 289 289 289 289 289 288 289 288 289 289 289 289 290 291 291 291 290 290 290 290 290 290 290 290 290 291 291 290 290 291 291 291 292 291 292 292 293 294 294 294 294 294 295 295 294 294 294 294 294 295 295 295 295 295 295 295 295 295 295 295 294 294 293 293 292 292 292 292 292 292 290
287 288 288 288 288 288 286 286 287 288 288 288 289 289 289 288 288 288 288 288 288 288 289 289 289 290 290 290 290 290 290 290 290 290 290 290 290 290 290 290 289 290 290 290 291 291 292 291 291 292 292 292 292 293 293 294 294 294 294 293 293 293 293 293 294 294 294 294 294 295 295 295 295 295 294 294 294 294 293 292 292 291 291 290 290
287 288 287 287 288 287 287 287 287 287 287 288 288 288 288 288 288 288 288 288 287 287 288 288 289 289 289 289 289 290 290 289 289 290 290 290 290 290 289 289 289 289 289 290 290 290 290 291 291 291 291 291 292 292 293 293 293 293 293 293 293 293 293 293 293 293 293 293 293 294 294 294 292 290 291 292 292 292 293 291 291 290 289 289 289
287 287 287 287 287 287 287 287 287 287 287 287 287 287 287 287 287 287 287 288 287 287 287 288 288 289 289 289 289 289 289 289 289 289 289 289 289 289 289 289 289 289 289 289 289 289 289 290 290 290 291 291 291 293 291 291 292 293 293 293 293 292 292 292 292 292 292 292 292 293 293 289 289 289 289 290 291 291 291 292 292 290 289 288 288
287 287 287 286 286 286 287 287 287 287 286 286 287 286 287 287 287 287 287 287 286 287 287 287 288 288 288 288 288 288 288 288 288 288 288 288 288 288 288 288 288 289 289 289 288 289 289 289 289 290 290 291 292 292 291 293 294 294 293 292 292 292 291 291 291 291 291 292 292 292 292 290 289 288 289 289 290 291 291 291 291 291 290 289 288
287 286 286 286 287 287 287 286 286 286 286 286 286 286 287 287 286 286 286 286 286 286 287 287 287 287 287 287 287 287 287 287 287 287 287 287 287 287 287 288 288 288 289 288 288 289 289 289 290 290 290 290 291 290 292 293 293 294 293 293 292 292 292 292 291 291 292 291 291 292 291 291 290 290 289 289 289 289 290 290 291 291 290 290 291
286 286 286 286 286 286 286 286 286 286 286 286 285 285 286 286 286 286 285 285 286 286 286 287 287 287 287 287 286 286 286 286 287 286 286 286 286 286 287 287 287 287 287 287 288 288 288 289 289 289 289 290 290 291 292 293 293 293 294 293 293 292 292 291 291 291 291 291 291 290 290 290 290 287 287 288 288 288 288 289 289 289 289 290 291
286 286 286 286 286 286 286 286 286 286 285 285 285 285 286 285 285 285 285 286 285 286 286 286 286 286 286 286 286 286 286 286 286 286 286 286 285 286 286 287 286 287 287 287 287 287 288 288 288 288 289 289 289 290 291 292 292 293 293 293 293 293 292 292 292 292 292 291 291 290 290 290 289 288 288 287 287 287 287 287 287 287 287 287 288
286 286 285 286 286 286 285 285 286 285 285 285 285 285 285 285 285 285 285 285 285 285 286 286 286 286 286 286 285 285 285 285 285 285 285 285 286 286 286 286 287 287 286 287 287 287 288 287 288 288 288 288 289 290 291 291 292 292 293 293 293 291 291 291 291 291 291 291 291 291 290 290 290 288 288 287 287 286 286 286 286 286 286 286 286
286 286 286 286 286 286 286 286 285 284 284 284 285 285 284 284 284 284 284 284 284 285 285 285 285 285 285 285 285 284 284 285 285 284 284 285 285 285 285 286 286 286 286 286 286 286 286 286 287 287 287 287 289 290 290 291 291 292 293 291 290 290 290 290 290 290 290 291 291 290 290 289 289 288 287 288 288 287 286 285 285 285 285 285 285
286 286 287 286 285 285 285 285 284 284 284 285 284 284 283 283 284 284 284 284 284 285 284 284 284 284 284 284 284 284 283 283 283 283 283 284 284 284 285 285 285 286 286 286 286 286 286 286 286 286 286 286 287 288 289 290 291 291 291 290 289 289 289 289 290 290 290 290 290 289 289 289 288 288 288 290 290 288 285 285 284 284 284 284 285
285 284 284 285 284 284 284 284 284 284 284 284 283 283 283 283 283 283 283 283 284 284 284 284 284 284 284 284 283 283 282 282 282 282 282 283 284 284 284 284 284 284 284 285 285 285 286 285 285 285 285 285 286 286 288 289 290 290 290 288 289 288 288 288 288 289 289 289 289 286 287 288 287 287 288 289 289 288 285 285 284 284 283 283 283
285 286 286 285 284 284 284 283 284 283 284 283 283 283 283 283 283 283 283 283 283 283 283 283 283 283 283 283 282 282 281 281 281 282 282 282 282 282 283 283 283 283 283 284 284 284 284 284 284 284 284 284 285 285 287 288 289 290 289 288 288 288 287 287 288 288 288 287 288 286 286 286 287 287 289 289 289 288 285 285 284 283 283 282 283
283 284 284 284 283 284 284 283 283 283 283 283 283 283 282 283 282 283 282 282 283 282 283 283 283 282 282 282 281 281 281 280 280 281 281 281 282 281 282 282 282 283 283 283 283 282 282 283 283 282 283 283 283 284 284 286 288 289 289 288 288 287 286 287 287 287 288 287 286 286 286 287 288 289 289 289 289 289 285 285 285 284 283 282 284
284 283 283 283 282 283 282 282 282 283 282 282 282 282 282 282 281 281 281 282 282 282 282 282 282 281 281 281 281 280 280 280 280 280 280 280 280 281 281 281 281 281 281 281 281 281 281 282 283 282 281 281 281 282 283 285 286 287 289 289 287 287 287 287 287 287 287 287 287 286 285 286 287 288 288 288 289 289 288 285 285 284 285 285 285
282 282 282 282 282 282 282 282 282 282 281 281 280 280 281 281 280 280 281 281 281 281 281 281 280 280 280 279 279 279 279 279 280 279 279 279 280 279 279 279 280 280 279 279 280 281 281 282 283 282 281 280 281 281 281 283 285 286 287 288 287 286 287 287 286 286 287 286 286 286 285 285 286 287 287 288 288 289 289 286 286 287 287 287 284
282 282 281 281 281 281 281 281 281 280 280 280 277 277 278 278 278 279 280 280 280 280 280 279 279 278 278 278 278 278 279 279 279 279 278 278 279 279 279 279 278 279 279 279 280 280 280 281 282 283 282 281 280 280 282 282 283 285 286 287 288 287 288 287 286 286 286 286 287 285 285 284 285 286 287 288 288 289 288 286 287 288 287 286 284
280 280 279 279 279 279 279 280 279 279 278 277 276 276 276 276 277 279 279 279 278 278 278 277 277 277 277 277 278 278 278 278 278 278 277 277 278 278 279 279 278 278 279 279 280 281 280 280 281 282 283 282 280 280 281 282 282 284 285 286 287 288 288 287 287 286 287 287 286 285 284 285 285 286 286 287 288 288 287 288 288 288 287 285 282
279 279 277 277 277 277 277 276 277 276 276 275 274 274 274 273 276 277 276 276 276 276 276 276 276 276 276 276 277 277 277 277 277 277 277 278 278 278 278 279 278 278 278 279 280 280 280 280 280 281 282 283 282 280 280 281 282 282 284 286 286 287 287 288 287 287 287 286 286 286 285 285 285 286 286 287 287 287 288 287 287 287 285 283 280
276 276 275 274 273 272 272 273 274 274 274 273 272 272 271 272 274 275 275 275 275 275 275 275 275 275 275 275 275 276 277 277 277 278 277 277 277 277 278 278 279 279 278 278 279 280 280 280 280 281 281 282 282 281 280 280 281 282 282 284 285 285 285 286 286 286 286 286 286 286 286 285 285 285 285 285 285 286 287 287 287 286 283 282 280
274 274 272 271 271 271 270 270 270 271 271 271 269 270 270 271 272 274 275 276 276 275 274 274 274 275 275 275 275 275 276 277 277 277 278 278 278 277 277 277 278 278 278 279 279 279 280 280 280 281 281 282 282 282 281 280 280 281 282 283 283 284 284 284 285 285 286 286 285 284 284 285 284 285 285 285 285 285 285 285 285 284 282 281 281
272 271 270 269 269 268 268 268 268 269 269 268 268 268 269 271 272 274 275 276 274 274 273 273 273 274 275 275 275 275 275 275 276 276 276 277 278 278 277 277 278 278 278 278 279 279 280 280 280 281 281 281 281 282 282 281 281 281 282 283 283 284 284 285 285 285 285 284 283 284 284 284 284 284 284 284 284 285 285 285 284 282 281 281 280
270 270 269 268 267 266 266 266 266 267 267 266 266 267 269 271 273 275 275 273 272 272 273 273 273 274 274 275 274 274 274 275 275 275 276 277 277 278 278 279 279 280 279 279 279 279 280 280 280 280 280 280 281 281 282 284 283 284 283 283 283 284 284 285 285 286 284 283 283 282 282 282 282 282 282 282 283 284 284 283 282 281 280 280 279
269 269 267 265 265 264 264 264 265 266 265 265 266 268 270 272 274 273 271 270 271 272 272 272 273 273 273 273 273 273 274 274 274 274 275 276 278 280 280 280 279 281 283 283 283 281 282 282 281 282 282 281 281 282 285 286 286 286 286 286 286 286 286 285 285 286 284 282 281 281 281 281 281 281 281 281 282 282 281 279 280 280 279 278 278
266 264 263 263 263 263 262 262 263 264 264 265 267 269 271 272 270 269 269 270 272 271 271 271 272 272 272 272 272 272 272 273 273 274 274 275 276 278 281 282 282 282 283 283 284 284 285 285 284 283 284 285 285 286 286 286 286 286 286 286 286 286 286 286 286 285 283 281 280 280 280 281 281 281 281 281 282 280 279 278 278 278 278 277 277
Wind_Speed
2 4 4 4 5 5 6 6 8 8 9 10 10 11 12 12 10 13 10 9 9 9 8 9 10 8 8 9 10 8 8 8 8 9 9 9 7 6 7 6 5 8 9 10 11 10 8 6 5 6 7 8 9 11 9 6 4 4 3 2 7 5 4 1 2 3 4 2 3 5 5 5 6 5 6 7 7 6 5 6 5 5 4 4 5
5 7 4 3 5 5 5 6 6 9 10 9 12 12 10 9 11 11 7 10 11 10 9 8 9 9 8 9 8 7 7 7 7 7 9 9 11 10 10 11 11 10 10 10 12 13 11 9 9 10 8 7 8 7 6 8 8 7 6 5 4 6 4 4 3 5 2 9 4 4 6 6 8 6 7 10 8 6 6 5 5 6 6 5 4
4 7 5 6 6 5 4 5 6 8 5 9 10 8 9 10 11 10 8 9 10 10 9 10 9 8 9 6 6 5 4 7 8 7 6 7 8 9 9 10 12 11 12 11 11 11 11 10 8 8 10 9 7 7 7 7 8 9 9 8 5 5 3 4 7 10 7 3 2 3 5 3 4 5 8 12 9 8 6 7 7 7 8 5 4
10 7 7 7 7 8 6 5 5 5 7 7 7 10 8 9 9 8 8 7 7 9 9 8 6 4 4 6 5 6 5 3 4 4 7 8 7 6 6 7 7 9 11 12 10 8 9 10 8 8 11 10 10 9 10 11 10 7 8 8 7 6 6 7 9 10 7 8 4 9 2 1 6 8 9 9 10 11 10 10 7 8 7 6 5
10 9 6 6 7 7 7 7 5 5 6 7 7 7 6 9 8 8 7 8 7 7 8 6 4 4 3 1 1 1 1 2 4 5 5 5 7 9 10 9 8 6 6 10 12 13 13 12 10 10 11 12 9 9 9 11 12 11 11 10 11 11 10 8 8 10 11 11 7 5 1 2 9 4 2 5 5 9 11 11 8 9 8 7 6
8 8 8 8 8 8 7 6 6 5 6 5 5 6 6 6 7 7 7 7 8 8 8 7 7 7 6 6 7 7 7 6 8 9 7 7 8 3 3 7 8 9 8 7 8 9 10 11 11 10 9 8 10 9 10 9 10 11 12 13 14 12 10 8 7 8 13 13 12 8 4 5 3 2 3 7 2 5 5 8 9 10 8 8 8
4 5 5 5 5 5 5 5 4 4 5 5 4 5 5 5 7 8 7 7 7 8 9 8 8 8 10 10 10 9 9 8 7 6 6 6 5 6 6 6 7 8 7 8 8 10 10 10 9 9 10 12 13 11 10 11 12 13 11 11 11 11 8 11 11 7 5 10 11 13 12 2 2 6 9 2 8 1 5 7 9 10 9 9 10
2 3 3 1 2 2 4 5 3 4 5 4 3 3 4 6 6 7 6 7 7 8 9 9 10 9 9 10 9 9 9 9 6 5 3 3 6 8 7 7 7 7 7 7 6 7 10 10 10 10 10 7 5 8 10 11 12 10 10 11 12 10 12 15 12 8 12 10 11 14 15 11 5 4 1 7 7 6 7 3 5 7 6 9 9
2 3 4 5 5 5 4 5 5 5 4 4 3 2 2 3 5 5 6 7 7 9 9 9 10 10 9 8 8 8 7 6 2 2 5 6 8 7 7 8 7 8 9 10 9 8 7 8 9 9 9 9 8 10 10 9 8 8 9 9 11 12 12 12 13 12 10 15 7 11 12 11 6 4 4 1 5 7 13 11 9 2 5 8 7
3 3 3 4 4 4 4 3 5 5 4 3 3 3 2 3 4 5 5 5 5 7 8 8 8 7 8 8 9 9 6 4 2 5 6 6 8 8 7 7 7 8 8 9 10 10 10 10 10 11 12 12 10 12 14 14 13 13 14 13 13 14 11 12 14 9 12 11 11 8 8 8 7 7 9 9 7 9 15 10 6 7 9 8 9
5 6 4 3 2 2 2 6 4 5 5 5 6 5 4 3 3 4 2 1 3 5 6 7 7 7 8 8 9 9 7 6 7 7 7 6 8 7 7 7 7 7 6 7 9 9 9 9 9 10 9 7 7 7 8 9 10 9 9 9 11 13 10 12 13 12 11 9 10 10 11 10 13 12 13 12 11 10 9 12 13 13 13 12 7
5 5 6 6 6 7 5 7 7 5 5 7 6 5 5 4 3 4 1 1 1 2 3 4 4 5 6 7 8 9 8 8 10 11 9 10 8 8 6 5 6 6 6 6 6 6 7 8 7 7 7 6 6 5 7 8 8 9 9 9 10 11 12 10 10 12 13 10 11 10 10 10 9 11 11 9 10 12 12 14 11 6 6 9 3
4 5 6 7 8 7 8 7 8 8 7 7 6 5 5 5 3 2 1 0 1 1 2 3 4 5 6 7 8 7 8 9 9 9 7 8 7 7 6 7 7 7 7 7 8 9 8 8 8 9 9 9 9 7 5 5 6 8 10 11 11 12 10 11 10 13 12 13 13 11 11 11 12 11 11 13 10 9 10 12 11 8 13 10 3
4 4 6 5 5 5 5 6 6 6 7 7 6 6 5 4 4 2 2 3 2 1 2 3 4 5 5 6 6 6 7 7 8 8 7 6 6 7 8 7 8 9 8 9 9 9 8 9 9 9 8 8 7 9 10 10 10 9 9 11 12 11 11 13 14 15 14 17 13 13 13 13 13 11 11 8 9 8 9 11 12 7 8 12 3
1 4 5 5 4 3 4 4 4 4 4 6 6 6 6 6 6 6 6 6 4 2 2 4 5 5 5 5 5 5 6 6 7 6 6 7 7 7 7 7 7 8 8 8 7 8 9 8 9 9 9 9 8 8 7 6 7 8 8 7 7 6 8 10 12 13 14 14 13 12 10 9 11 9 9 11 10 11 12 12 11 13 12 10 10
4 6 7 6 4 4 4 4 3 3 3 2 4 4 4 4 3 3 3 5 5 5 4 4 6 4 5 6 6 6 6 5 6 6 6 7 7 7 7 7 7 7 7 6 7 7 8 9 8 9 8 8 8 8 7 6 6 6 6 6 8 5 7 10 10 10 12 13 12 12 11 12 11 11 12 12 12 12 11 9 10 10 13 17 8
6 7 6 7 8 9 8 7 4 3 3 4 3 3 3 2 2 2 2 3 3 4 5 5 5 5 6 6 6 6 6 7 7 8 8 7 6 6 7 7 6 6 7 7 7 7 7 8 9 9 8 8 8 7 7 7 6 7 7 7 7 5 7 9 8 9 9 10 10 12 11 11 11 10 9 9 9 9 11 11 10 13 13 13 13
3 4 5 5 6 8 8 7 7 7 6 7 8 5 4 5 5 6 5 6 4 4 4 4 5 5 6 6 5 5 5 6 6 7 6 6 6 5 5 6 8 7 6 6 6 7 7 7 7 8 8 8 8 8 8 8 8 8 9 9 9 6 7 7 8 8 8 7 8 8 8 9 9 9 10 10 10 11 11 12 11 11 11 13 13
7 7 7 8 8 8 8 7 7 7 6 6 6 5 6 7 7 7 7 5 5 5 4 4 4 4 4 5 5 5 5 6 6 6 6 6 7 7 7 7 7 6 6 6 7 7 7 7 7 8 8 9 9 9 8 8 8 9 9 9 8 7 8 10 8 7 7 7 8 9 8 9 8 10 10 11 11 11 12 10 11 9 10 12 13
5 6 6 6 6 6 7 8 10 10 10 9 9 9 11 9 9 9 6 6 7 8 7 6 5 4 5 4 5 5 5 5 5 5 6 6 7 6 7 7 8 6 6 7 7 8 7 8 7 7 8 7 8 8 7 8 8 9 9 9 8 8 10 11 10 8 9 9 10 11 10 9 7 7 9 8 9 9 10 10 9 10 11 11 11
4 4 4 5 5 5 6 6 6 5 5 7 9 9 7 8 9 9 10 9 9 7 7 7 7 7 6 7 7 6 6 4 5 5 6 6 6 6 7 7 4 7 6 7 8 8 8 7 7 8 8 8 8 8 7 7 8 9 9 9 8 8 10 10 9 10 9 10 10 11 12 12 9 10 9 9 9 10 9 9 8 9 10 9 10
1 2 4 5 5 5 4 4 4 7 10 11 9 8 10 10 8 8 8 9 10 9 8 8 6 5 6 6 7 6 6 5 6 5 6 6 6 6 7 5 7 8 5 7 8 7 7 7 7 8 8 8 9 9 8 7 8 10 10 8 9 9 10 11 9 11 9 8 7 9 10 9 7 9 9 10 9 9 9 9 9 10 10 10 10
1 2 3 3 4 6 6 8 9 9 8 8 8 9 8 8 9 8 8 8 7 6 6 5 6 7 7 5 6 6 6 6 7 6 7 7 7 7 5 7 7 7 6 6 7 7 6 6 7 8 8 9 9 9 7 8 9 10 11 10 9 9 10 11 10 11 10 8 9 10 11 10 7 9 9 10 8 9 8 10 11 9 11 11 11
2 1 2 5 5 5 8 9 9 9 8 9 7 7 8 8 9 9 12 12 11 10 9 9 8 7 6 6 6 5 5 5 5 5 6 7 7 7 6 6 7 6 7 6 6 6 6 6 7 7 8 8 8 7 7 8 10 10 11 11 9 10 10 10 11 10 9 8 10 9 10 8 7 9 9 9 8 8 9 10 11 11 11 12 12
4 7 6 7 8 9 8 6 6 5 5 6 8 9 9 9 9 10 9 9 9 9 9 8 8 8 8 7 7 6 6 6 6 5 6 7 6 6 6 6 6 7 7 6 7 5 6 7 8 9 9 8 8 8 8 9 9 9 9 9 9 9 9 10 10 9 9 9 9 10 9 8 8 10 9 9 8 10 9 9 9 9 9 10 9
5 6 8 8 6 6 7 7 6 6 7 7 6 6 6 7 8 7 8 9 9 8 7 7 7 8 8 9 9 9 9 9 8 7 7 7 6 6 6 6 5 7 7 6 7 6 6 8 7 8 8 8 7 7 8 9 9 9 9 9 9 9 9 9 9 9 9 9 10 10 10 8 9 10 10 9 9 11 9 10 10 9 9 8 9
5 5 4 5 6 6 6 5 5 4 4 4 4 6 7 7 8 8 7 7 8 7 7 7 8 7 8 9 9 9 8 8 8 8 7 7 7 7 6 7 5 6 6 7 6 7 7 7 7 7 8 8 7 7 8 9 9 9 9 10 9 9 10 9 9 9 9 9 10 10 9 9 10 10 11 10 10 10 10 11 11 11 10 9 9
3 4 5 4 2 1 1 2 2 1 1 4 5 5 5 6 6 7 7 7 7 8 8 8 8 9 9 10 9 8 8 8 7 7 7 7 7 7 6 6 6 6 6 7 7 7 7 6 7 7 7 7 7 8 8 9 9 9 9 9 9 9 9 9 9 9 9 9 10 10 10 10 10 11 11 11 10 11 9 10 9 9 8 9 9
4 3 2 2 2 3 2 4 3 3 6 6 5 4 4 4 3 5 5 6 7 7 8 8 8 9 9 8 8 8 8 9 9 9 9 9 9 8 7 7 6 6 6 6 7 7 8 8 7 7 7 7 8 9 8 8 8 9 8 9 10 10 10 10 9 9 9 9 10 10 10 9 10 13 15 14 13 11 9 9 9 8 9 9 8
4 2 3 5 4 3 5 2 6 7 7 6 6 5 5 6 6 6 7 7 6 6 6 7 8 8 8 8 8 8 9 9 10 10 10 10 10 10 9 9 8 7 7 7 7 6 7 8 8 8 7 7 7 7 9 14 12 10 8 9 9 9 9 9 10 10 9 9 10 10 10 13 14 15 15 16 16 16 16 13 10 8 9 8 9
4 5 4 4 4 2 4 8 6 6 4 4 3 4 3 3 4 5 6 6 6 6 5 6 7 6 6 7 7 8 8 9 8 8 9 9 10 9 9 9 9 8 8 8 7 8 8 7 8 8 9 8 8 8 12 12 14 16 12 10 10 10 9 9 9 10 11 9 9 10 9 10 11 12 13 15 16 17 17 18 18 14 12 11 9
6 5 3 2 6 7 8 7 6 6 6 5 6 6 5 6 6 6 6 6 5 5 5 5 5 5 6 6 7 7 7 7 7 8 8 8 8 7 7 8 8 8 9 8 8 8 8 8 8 8 9 9 9 10 14 14 15 15 14 11 9 9 9 9 9 10 10 9 9 9 9 7 8 10 9 10 13 16 17 17 17 17 16 17 16
6 5 6 6 5 4 3 4 4 5 6 6 5 6 7 7 7 6 6 5 5 5 5 5 5 6 7 6 7 7 8 8 8 7 7 7 6 6 6 6 7 7 7 7 8 8 8 8 8 9 10 9 9 10 13 15 16 16 16 14 10 10 10 11 10 10 10 10 9 8 8 7 7 11 11 9 9 9 13 16 16 16 16 17 17
5 5 5 3 3 3 3 3 3 4 4 5 5 5 6 6 6 5 6 6 6 6 6 7 6 7 7 7 8 8 8 8 8 8 7 7 6 7 6 7 5 6 7 7 6 7 8 8 8 9 10 9 9 9 14 14 15 16 16 14 11 11 11 11 11 10 10 10 10 9 9 8 8 9 8 9 8 9 8 8 8 9 9 11 15
6 5 3 2 2 2 3 4 4 4 5 5 6 5 5 6 6 6 5 6 6 6 7 8 8 8 8 9 9 9 10 10 9 8 8 7 7 8 7 6 6 6 7 8 8 8 8 7 8 8 9 10 8 10 13 14 14 16 16 14 10 9 9 10 10 10 10 10 10 9 9 9 8 8 8 10 9 9 8 8 8 8 8 7 8
5 5 3 3 2 1 1 2 3 3 4 4 6 6 6 6 5 5 6 5 6 7 8 9 10 10 10 9 9 10 9 9 9 9 8 8 8 7 9 9 7 6 5 5 6 5 7 8 7 7 9 11 9 9 12 13 14 16 16 9 8 9 10 9 10 10 10 9 9 9 9 9 9 9 9 14 13 8 7 8 9 8 7 7 8
4 4 3 1 1 0 1 1 2 2 3 5 5 5 5 5 5 6 6 6 6 8 9 9 9 9 9 9 9 10 10 9 9 10 10 10 11 12 9 6 9 9 8 8 8 7 6 8 9 7 8 10 10 9 11 13 13 16 12 7 7 8 9 10 11 9 9 9 8 9 9 9 9 9 11 16 15 11 7 9 9 8 7 7 5
3 2 1 1 1 0 0 0 1 1 2 3 3 3 3 4 5 6 6 6 7 8 8 9 9 10 10 10 9 9 10 10 9 10 11 10 9 8 7 6 8 10 11 9 8 10 8 6 8 9 7 10 11 9 12 14 14 14 11 9 7 8 9 9 9 9 8 9 9 11 10 9 9 10 12 15 15 12 9 9 9 9 9 8 6
3 4 4 3 2 2 1 2 2 4 5 4 5 5 4 6 6 7 6 7 9 9 10 11 10 9 9 8 8 8 8 9 9 9 8 10 10 9 9 7 7 7 9 8 8 9 10 8 6 9 9 10 11 11 10 16 16 14 11 7 7 7 9 9 8 9 8 7 7 7 12 12 11 10 15 14 16 13 9 9 9 9 8 10 9
3 2 1 1 2 4 6 7 8 7 6 6 6 7 7 8 9 8 9 10 10 10 10 9 9 10 8 8 7 8 8 8 10 10 8 8 8 8 8 8 8 6 8 9 8 8 11 11 7 7 8 8 10 11 9 12 15 15 14 8 6 7 9 10 8 8 8 6 6 6 8 12 17 18 16 15 16 18 11 9 8 9 9 10 8
4 3 2 3 3 3 4 4 4 6 6 6 7 7 8 7 8 8 8 8 8 9 9 10 10 9 9 9 7 6 9 9 6 9 9 8 6 8 9 8 9 8 8 9 10 9 10 11 9 7 7 8 8 10 11 11 14 15 15 12 7 9 9 9 9 9 8 8 7 7 6 9 14 16 15 16 16 19 17 10 10 10 10 9 10
4 5 6 4 5 5 6 7 7 8 8 8 7 8 6 8 7 8 7 7 8 8 8 9 9 9 9 9 8 8 6 8 8 7 9 10 7 6 7 8 7 7 10 11 10 9 9 11 10 8 7 9 8 10 10 11 13 15 16 15 10 9 9 9 10 10 9 8 8 7 6 8 13 15 16 17 18 18 21 10 11 14 9 15 11
6 7 7 7 6 7 6 6 6 7 7 7 6 6 6 6 6 7 7 8 8 8 9 8 9 9 9 9 9 9 10 8 9 8 8 11 10 8 9 7 8 9 9 11 11 9 9 11 11 10 6 6 7 7 10 10 12 14 16 16 17 13 15 10 10 11 11 8 7 6 7 9 12 15 16 18 18 19 17 10 14 15 14 19 11
5 6 6 7 5 5 6 7 7 7 7 6 6 6 6 7 8 8 8 8 7 7 8 8 8 9 10 10 10 10 9 8 8 8 8 9 10 10 9 7 6 7 8 10 10 8 8 10 11 12 11 6 4 6 7 10 11 14 15 17 17 18 17 10 10 10 9 8 8 7 7 10 14 15 16 18 18 17 11 16 16 16 20 16 9
5 6 6 6 7 7 7 7 7 6 6 5 5 7 7 7 8 8 9 9 8 8 8 9 10 10 10 10 11 10 9 9 8 7 9 10 11 9 10 10 6 7 7 8 10 9 9 10 10 12 12 11 6 5 6 8 11 13 16 16 17 18 17 17 12 10 10 8 10 13 12 13 14 15 16 17 15 16 18 18 18 19 18 10 8
6 5 7 5 5 4 3 4 6 4 4 4 5 5 7 8 9 9 9 9 9 10 11 11 11 10 10 10 12 12 9 8 9 7 7 7 8 9 9 11 9 8 8 8 10 10 10 9 10 11 11 11 10 6 6 6 6 9 10 13 16 16 16 16 16 13 13 13 15 13 13 12 12 11 9 8 7 8 13 16 16 18 11 11 10
4 5 4 3 1 1 2 3 4 4 4 5 5 5 5 7 9 9 9 10 10 11 12 11 11 12 11 10 11 10 11 12 9 8 8 8 7 8 9 10 9 8 8 9 9 9 10 10 10 11 11 11 11 9 7 5 5 5 6 7 7 8 11 13 11 10 11 10 10 9 7 8 7 11 12 9 9 8 8 10 9 11 10 10 10
3 2 1 0 1 1 3 4 6 8 7 8 8 9 8 9 8 9 8 9 10 11 11 12 12 10 10 10 10 13 13 11 12 10 10 11 9 7 8 10 11 8 8 11 10 10 11 9 10 10 11 11 12 11 7 6 7 6 5 6 6 5 6 5 7 8 7 7 6 6 8 6 6 6 7 7 6 6 7 8 8 9 9 9 9
1 0 1 2 3 4 4 5 6 6 7 8 8 8 8 9 9 8 8 10 11 12 12 11 10 9 9 10 10 10 10 11 12 12 10 9 10 11 11 12 12 8 8 10 11 11 11 9 8 10 10 10 12 13 8 4 7 8 8 7 7 7 6 8 9 11 5 4 5 5 6 7 8 8 8 9 8 7 7 8 10 9 7 9 9
1 2 3 4 5 4 4 5 5 5 6 6 7 7 7 8 6 8 10 10 11 11 10 10 9 9 10 11 11 10 10 11 11 12 14 15 15 15 13 12 14 13 15 18 16 14 13 10 10 12 10 11 13 15 15 17 18 18 17 16 16 16 16 12 11 14 9 7 7 7 8 9 9 9 9 9 9 8 7 8 9 9 9 8 9
4 4 4 4 3 4 4 6 7 7 7 7 7 8 8 6 9 10 9 9 10 11 10 9 10 10 11 12 12 12 11 11 11 11 12 14 16 16 16 18 20 21 21 19 20 24 24 22 16 15 15 18 20 23 25 22 21 20 19 19 18 18 19 18 16 9 9 9 8 9 8 8 9 8 9 9 8 8 8 9 8 9 8 9 8
Wind_Direction
293 256 274 273 263 244 233 218 224 223 223 212 209 211 210 210 200 215 205 200 201 200 198 196 199 203 205 208 214 209 210 207 206 203 199 197 196 191 206 221 216 201 196 187 198 199 201 203 199 198 185 184 187 203 198 176 180 209 158 121 166 194 235 178 134 129 140 219 243 273 277 248 257 244 240 241 232 225 220 227 224 229 220 218 222
306 302 302 313 281 260 240 220 207 214 226 212 215 217 214 211 212 218 190 200 205 203 201 201 203 206 204 212 211 208 205 208 215 209 207 207 200 196 195 200 197 196 199 202 208 205 206 199 190 194 194 207 205 200 188 185 179 181 169 176 198 192 203 154 162 138 215 221 211 250 255 243 238 233 235 245 235 226 222 226 226 229 227 218 218
299 276 297 291 296 290 260 251 241 231 228 209 221 212 208 209 216 213 202 200 206 205 201 209 207 209 210 217 207 217 219 211 214 206 209 216 215 216 209 200 196 196 196 207 207 204 205 202 206 190 187 186 182 191 197 203 197 189 181 190 159 199 160 166 181 203 212 155 89 27 263 277 212 225 228 237 225 225 215 224 224 229 228 217 220
290 285 285 292 302 302 304 267 237 236 236 228 209 210 209 212 214 208 206 203 205 207 213 218 211 213 219 216 204 203 205 209 215 213 203 204 216 206 218 215 210 207 194 192 206 214 209 206 203 190 189 186 194 195 193 200 192 188 189 202 176 177 206 214 199 205 210 142 214 213 219 210 297 239 225 229 206 217 209 222 212 225 221 216 213
277 288 293 297 306 297 295 298 304 241 229 222 211 207 203 208 202 195 192 196 198 197 205 199 183 195 184 102 105 138 337 210 206 223 218 220 222 210 215 199 208 218 210 199 195 199 205 209 205 206 202 201 197 197 199 200 196 193 183 183 184 194 206 210 197 200 214 211 198 103 89 233 228 269 56 252 162 209 218 219 213 218 216 211 219
257 275 284 290 284 294 299 299 297 281 266 249 226 220 202 197 188 186 187 188 193 189 183 182 194 191 182 188 197 206 208 187 204 213 210 210 218 219 229 213 211 208 204 205 214 217 210 208 208 206 206 196 205 207 207 195 199 196 192 194 206 208 218 206 211 201 219 224 235 233 230 259 175 194 118 267 82 236 256 226 221 214 210 212 221
300 275 278 300 307 323 328 348 323 296 281 288 284 236 209 194 184 184 185 188 184 180 176 182 196 199 201 209 214 217 222 226 220 221 218 219 214 216 221 212 217 215 213 206 202 207 215 212 208 206 205 204 202 200 197 197 201 201 194 199 206 209 212 230 218 191 200 245 241 244 249 185 201 139 230 7 291 342 229 220 223 218 209 214 223
277 299 309 283 285 315 319 315 315 311 296 298 291 294 209 197 178 182 181 179 180 175 180 185 199 203 208 216 219 223 225 235 215 225 226 221 210 219 218 218 212 218 220 216 212 207 209 213 210 212 217 221 212 225 221 214 215 210 191 192 201 201 207 223 225 190 189 225 214 231 238 237 209 282 10 235 267 282 255 233 270 249 222 232 234
291 357 5 357 360 351 340 340 336 339 357 350 322 293 251 180 169 162 174 174 181 180 183 193 199 202 210 218 227 230 239 244 199 195 217 222 232 228 223 225 219 221 224 225 221 222 209 214 214 217 217 217 197 208 219 220 213 202 201 200 200 200 201 212 224 225 210 234 194 227 237 240 233 244 292 222 238 259 267 253 249 91 238 243 233
331 307 302 325 320 322 319 299 3 3 343 350 17 33 73 116 129 146 174 180 177 182 188 195 201 200 208 215 224 232 225 237 196 226 220 215 230 230 228 228 226 225 227 229 232 229 229 225 228 228 229 224 209 212 213 214 210 208 208 207 207 206 207 212 222 220 227 231 227 223 209 224 245 255 244 241 251 230 255 251 257 229 248 228 208
351 353 3 345 291 290 310 50 5 10 16 41 38 36 40 69 107 123 202 225 176 188 190 199 203 203 212 214 221 229 225 221 222 229 223 223 228 231 222 227 227 230 228 230 229 229 231 231 229 231 233 232 214 212 215 210 210 211 214 215 214 209 211 215 219 229 232 224 216 213 215 203 211 216 229 228 226 236 246 257 253 248 255 271 214
339 20 31 28 44 37 44 37 26 17 33 31 29 28 41 47 99 115 72 87 334 206 203 213 207 219 228 226 225 226 223 219 223 232 222 227 229 232 226 235 233 234 233 234 233 235 234 232 231 233 231 224 218 207 211 207 202 202 208 210 218 218 222 215 218 224 224 224 223 220 225 222 226 230 235 228 215 230 228 250 247 250 252 229 206
17 40 52 49 52 41 39 28 29 23 16 11 18 20 27 43 55 124 206 356 337 358 212 237 217 223 222 227 233 232 231 230 236 241 233 230 231 234 222 225 224 228 228 229 231 228 233 240 241 242 245 243 245 239 224 205 206 206 207 211 218 221 213 210 214 221 217 221 226 220 223 224 229 230 236 237 234 237 232 252 252 231 257 261 219
22 57 69 67 61 54 45 49 40 28 19 12 5 15 8 28 36 63 298 358 3 357 287 256 244 243 241 242 246 240 242 239 243 243 242 234 228 231 225 223 224 223 225 228 227 230 233 238 242 246 246 248 245 246 246 244 244 249 249 242 232 221 206 207 218 220 221 224 224 228 221 222 227 225 227 226 225 217 232 235 259 245 227 263 218
53 95 91 97 94 113 107 96 85 50 34 23 13 6 1 6 6 6 352 355 15 339 313 258 255 255 252 249 250 242 243 245 245 242 247 240 235 235 234 229 230 231 227 232 232 230 233 235 237 241 243 244 243 243 244 241 232 229 229 233 234 227 219 215 223 220 224 227 226 230 235 230 234 229 225 226 222 224 228 237 240 262 264 245 251
46 64 57 53 88 117 111 113 118 124 120 93 41 11 18 354 344 331 292 304 321 316 279 251 263 265 259 251 243 242 246 251 257 250 248 239 245 233 243 236 235 242 242 236 233 223 228 233 236 237 241 243 242 242 239 234 230 235 237 229 233 205 215 219 227 224 231 230 229 229 231 235 228 228 222 225 221 225 228 236 238 243 257 272 243
58 64 54 42 31 30 29 29 52 76 72 46 47 43 23 19 76 355 296 284 292 281 278 275 274 278 268 260 257 255 249 250 252 258 254 256 251 250 247 248 247 241 242 227 236 226 230 231 233 237 238 240 244 245 244 240 237 238 240 237 239 211 218 227 225 226 230 229 230 229 229 237 235 236 234 231 232 230 231 233 228 231 235 248 268
85 76 69 59 45 31 20 27 25 18 16 13 14 12 16 30 33 38 32 24 339 309 284 273 275 271 277 274 267 255 259 260 256 261 268 267 262 255 259 259 247 247 246 248 234 237 227 225 230 233 234 234 238 240 241 243 244 248 249 249 248 238 233 230 226 224 229 222 229 231 232 241 237 237 234 230 227 230 231 229 229 229 221 236 249
74 65 52 41 33 23 18 11 2 17 23 27 11 17 34 38 34 40 21 1 327 318 311 297 274 273 277 288 286 282 260 258 258 260 270 262 261 259 254 254 269 258 251 251 244 246 244 239 234 237 234 233 229 227 223 229 231 242 243 247 242 234 239 243 236 226 233 228 236 239 236 244 238 241 237 233 230 230 232 226 231 221 221 228 239
90 67 52 41 27 17 12 10 9 2 4 6 13 22 27 15 22 23 26 21 6 6 357 351 338 324 317 310 297 271 267 266 265 267 265 255 261 262 259 259 254 260 250 243 243 241 238 242 238 239 243 243 243 242 238 235 228 231 233 238 237 230 239 243 246 237 243 238 239 240 236 241 245 252 251 244 239 231 228 228 223 220 224 221 227
87 69 47 32 29 19 12 6 2 358 17 25 28 25 19 20 24 19 14 6 13 2 360 353 344 343 341 333 316 307 297 283 283 269 266 269 270 263 260 258 275 252 237 244 242 242 239 236 240 236 239 241 238 241 235 235 234 239 238 232 229 224 234 241 238 241 232 231 231 235 240 240 234 237 238 238 235 234 226 229 220 221 224 214 217
117 15 11 19 22 28 21 23 17 27 25 23 17 22 22 22 12 9 13 17 1 1 357 346 343 330 347 335 317 312 317 322 311 300 287 286 279 271 267 277 258 266 241 246 246 246 241 239 239 244 240 239 239 236 232 226 234 240 241 233 235 228 231 237 232 239 232 232 234 244 250 249 240 241 240 239 230 228 226 224 222 217 220 220 212
174 7 17 29 45 38 34 29 27 27 18 18 20 23 16 11 10 9 14 8 2 340 336 333 345 352 349 332 321 325 329 325 321 309 301 291 287 281 275 267 268 271 261 248 257 258 252 246 245 243 242 240 236 237 231 225 232 234 238 234 231 229 231 235 234 237 236 229 233 236 243 241 237 241 240 241 232 231 220 225 229 217 225 221 215
335 275 82 66 53 46 37 28 21 18 16 16 16 17 13 13 9 8 10 357 356 356 349 351 353 352 346 348 350 333 333 321 304 291 284 285 282 282 281 270 272 278 275 265 250 254 250 245 249 249 246 248 246 242 238 231 237 236 238 239 232 232 233 235 238 240 237 229 234 241 246 244 239 242 244 240 237 232 226 226 224 222 222 224 222
23 44 50 48 41 34 28 21 19 6 9 16 20 19 14 4 6 8 359 351 349 347 346 345 350 348 353 360 357 356 354 345 327 306 295 291 287 283 280 270 275 275 269 273 268 247 251 247 246 247 248 245 243 240 240 241 241 244 247 249 245 241 240 239 239 241 238 236 237 236 244 234 235 243 244 240 236 232 231 230 231 229 226 227 226
47 52 52 55 53 37 25 12 6 9 12 8 12 17 10 4 2 359 354 348 346 339 340 345 355 359 358 1 358 356 358 347 336 327 316 308 301 293 288 279 261 272 278 268 267 261 243 251 248 252 254 256 251 244 243 245 245 244 244 244 244 242 242 242 241 239 237 233 237 240 239 235 237 237 243 237 234 235 231 230 231 231 227 224 223
76 89 95 70 46 34 8 349 341 343 339 344 3 12 9 5 357 354 348 340 336 339 345 357 359 4 360 4 358 354 346 340 336 327 320 316 312 305 299 293 282 267 274 279 271 264 257 252 259 258 256 255 254 246 246 246 247 245 244 244 242 242 241 240 238 236 235 235 236 240 239 231 234 235 241 239 235 235 229 233 226 230 228 220 219
59 62 70 88 107 52 286 271 269 256 332 17 14 5 355 349 348 341 337 342 343 347 353 0 5 6 10 358 354 343 344 338 330 327 324 321 319 318 310 298 299 291 282 275 275 272 271 256 258 257 259 260 258 256 252 249 248 246 245 247 244 243 244 243 241 240 236 236 237 238 238 235 234 238 237 240 231 236 230 235 229 225 224 216 220
99 86 78 102 165 204 217 231 229 34 36 25 19 4 353 338 326 329 332 350 340 347 356 2 4 11 0 348 343 346 343 344 341 340 343 341 337 329 323 316 306 295 282 276 276 278 283 278 266 256 260 250 252 254 253 253 256 253 245 249 245 243 242 245 244 241 237 235 238 238 238 239 236 240 238 237 235 231 229 236 230 214 219 213 218
95 111 194 200 191 191 208 193 47 37 25 19 8 0 353 348 350 346 349 347 354 355 2 1 9 358 346 344 343 341 344 342 345 345 339 334 333 332 331 329 324 313 303 295 293 287 279 281 287 283 271 262 255 254 250 251 251 256 258 254 252 247 242 243 246 247 244 236 238 239 240 239 243 242 243 244 244 242 235 231 233 206 211 210 210
171 191 194 184 191 182 62 44 40 30 18 12 355 335 329 343 349 345 347 337 343 346 358 2 357 344 335 336 342 340 337 340 335 327 326 328 328 326 325 323 321 319 314 313 307 302 293 287 284 285 285 277 271 267 265 259 256 253 252 254 251 253 242 243 243 244 248 241 238 236 240 241 243 247 247 247 245 244 242 239 237 225 208 202 204
181 180 162 103 51 39 35 25 13 9 3 1 355 344 345 357 345 343 335 326 334 337 347 350 340 332 339 343 338 332 334 328 326 324 320 316 313 316 318 317 317 319 318 318 310 296 295 291 287 283 278 277 275 275 275 274 268 263 256 254 253 251 250 245 243 244 246 243 241 238 236 234 235 238 240 241 244 244 244 242 239 233 222 216 210
160 111 73 61 54 37 21 11 4 4 354 339 340 341 347 338 336 323 322 332 338 339 341 352 350 345 348 344 338 338 331 327 327 319 313 312 311 310 313 318 315 306 305 304 294 296 289 285 278 280 278 274 273 272 272 272 272 270 265 258 257 250 250 249 245 245 245 244 241 240 244 232 230 233 238 239 240 245 244 244 242 237 230 222 222
96 93 91 67 46 16 3 342 330 323 316 305 318 317 314 315 308 316 334 340 345 350 357 355 352 355 351 345 342 338 336 330 326 324 323 321 322 320 310 299 297 302 298 295 291 284 285 281 276 274 278 276 271 274 272 269 269 268 267 263 258 257 253 251 249 245 244 243 239 240 244 242 225 225 228 233 235 240 241 240 238 230 227 228 226
115 101 95 92 75 24 356 351 343 331 322 332 336 338 328 327 332 340 347 343 351 348 2 358 353 350 351 351 348 344 338 335 333 331 329 327 325 320 319 317 315 312 312 309 308 308 296 290 288 282 281 282 277 273 274 269 269 269 269 265 262 260 257 256 251 246 244 245 242 241 241 247 240 225 223 221 230 229 229 229 227 225 222 220 218
138 125 137 128 107 75 6 326 311 336 331 342 335 330 340 332 327 342 341 349 350 0 358 357 354 352 349 346 343 337 332 330 328 327 325 324 326 322 321 321 314 304 291 283 286 271 285 293 288 287 289 287 286 278 275 275 271 276 276 270 265 261 261 260 256 249 245 243 245 242 244 245 240 237 227 226 229 223 219 223 221 220 218 215 219
156 141 123 143 180 191 278 272 317 317 339 347 329 330 329 329 347 350 349 348 2 5 1 351 346 341 341 338 338 332 329 329 329 329 330 333 333 330 327 326 320 316 314 311 305 299 293 291 291 287 285 287 289 286 281 279 279 281 280 270 265 263 262 263 260 257 250 247 243 238 238 245 241 238 231 234 231 216 215 216 216 212 209 206 201
123 118 65 68 7 328 280 190 357 16 0 332 319 324 326 342 352 349 355 357 6 1 350 344 338 338 334 335 333 333 328 326 329 331 326 323 320 311 310 320 314 314 313 312 309 306 296 280 284 285 277 285 288 286 285 287 282 280 273 270 265 264 265 263 269 261 258 255 243 237 235 240 242 240 235 231 225 212 210 211 207 198 192 188 180
109 97 60 27 7 345 323 31 44 22 359 352 345 348 355 1 2 358 357 0 1 353 349 342 334 329 328 326 325 324 322 319 320 317 318 315 317 314 309 309 300 296 293 299 302 300 300 293 272 275 279 276 281 286 279 285 285 283 277 264 265 262 266 263 263 266 253 247 249 237 234 236 239 241 242 232 222 212 208 208 202 196 193 188 180
114 101 97 83 36 26 21 19 16 4 348 358 356 2 8 3 356 355 0 1 353 345 333 326 323 323 321 323 323 321 316 317 313 311 310 305 303 305 307 308 303 298 298 303 300 293 295 295 293 280 280 270 278 283 277 272 278 277 273 266 258 257 259 267 262 262 266 250 240 241 241 234 240 245 241 231 224 217 207 206 196 200 195 196 178
80 57 60 62 45 54 36 23 3 356 357 0 5 6 2 358 349 352 351 346 339 331 328 323 321 320 319 318 316 312 310 307 297 298 302 299 298 301 308 309 306 306 303 299 299 299 294 292 290 277 272 269 260 273 279 268 271 275 275 267 258 252 257 261 267 264 258 261 256 243 228 235 237 240 236 230 226 224 214 201 204 204 207 186 163
109 78 53 41 31 19 13 11 9 5 1 1 7 3 350 347 344 337 330 333 329 323 319 316 315 315 312 311 309 307 294 296 302 305 309 309 306 297 295 299 300 299 302 300 300 300 297 295 296 281 264 266 256 250 269 276 271 269 269 264 259 256 251 260 264 264 260 255 251 248 245 225 231 234 235 232 228 227 219 202 209 212 192 157 164
39 33 29 33 22 12 5 358 355 4 360 357 9 356 334 327 325 315 330 329 324 321 317 314 311 310 311 310 310 312 314 316 313 312 307 304 307 310 304 301 300 301 300 298 297 299 299 298 300 295 274 255 259 255 251 265 269 267 265 264 258 258 259 253 255 259 259 257 255 246 236 225 219 228 227 227 229 225 221 204 201 199 168 157 142
57 58 33 25 9 3 355 354 0 360 356 356 1 347 329 327 320 329 333 324 323 320 314 313 313 314 317 318 318 317 313 311 305 305 302 297 302 305 300 295 291 292 297 299 298 299 296 294 297 299 296 277 244 261 252 252 263 265 265 263 262 259 257 252 250 257 261 258 254 245 230 216 224 227 225 228 230 226 217 204 196 191 164 150 138
53 41 26 24 4 352 347 340 345 348 349 354 358 350 332 327 323 337 325 327 325 326 326 323 323 322 322 319 317 313 311 307 305 302 305 306 304 307 306 305 299 291 287 290 291 296 292 291 294 291 294 297 283 249 262 253 253 261 263 263 263 263 261 259 257 256 252 251 251 250 241 235 236 228 226 229 229 228 219 201 198 181 161 146 148
55 32 26 8 352 346 336 318 316 326 352 351 0 351 342 325 330 327 326 325 330 332 331 328 324 321 320 319 314 313 309 303 304 300 288 282 286 296 296 297 297 289 287 284 289 295 292 289 286 287 289 292 294 282 264 261 253 261 263 262 261 261 260 256 255 259 256 246 248 245 237 232 228 228 226 221 222 226 218 197 189 172 163 158 159
52 23 23 350 350 328 302 303 309 327 352 349 355 351 336 325 327 322 325 329 331 333 326 325 323 320 318 318 316 316 318 315 312 308 300 294 285 283 284 284 282 285 288 286 284 286 287 289 288 290 291 294 293 290 279 268 251 255 258 261 259 258 255 258 257 255 251 244 236 230 222 220 220 221 220 218 220 221 213 192 188 170 168 163 165
54 358 5 304 19 345 338 345 343 345 352 348 346 343 336 328 320 319 320 330 333 330 324 319 318 314 315 317 315 314 314 311 311 313 309 308 300 285 279 281 287 286 289 288 286 283 279 280 291 290 293 295 291 291 282 275 271 257 254 258 254 256 254 244 250 250 237 224 213 208 213 210 211 222 221 223 215 201 193 184 176 168 167 161 157
8 330 67 57 16 11 2 352 340 344 345 342 334 329 322 321 319 316 340 340 327 320 315 309 308 312 313 317 310 309 309 310 308 307 298 286 289 296 290 280 266 254 248 267 277 275 272 271 271 276 283 289 286 283 281 267 264 257 263 271 269 260 257 258 246 244 233 209 200 197 193 201 205 210 214 218 212 193 189 175 163 165 160 159 156
320 51 29 37 15 15 355 346 335 341 338 327 322 316 312 308 324 350 344 327 322 319 315 315 316 317 317 315 313 308 306 305 305 305 308 304 289 275 267 273 286 277 255 250 255 264 269 276 273 267 257 260 272 278 289 286 282 280 275 263 260 261 260 256 253 245 218 214 206 206 206 200 201 202 208 211 206 191 170 159 164 158 158 157 156
20 23 11 13 2 0 358 353 345 339 332 322 317 315 311 342 0 337 326 315 312 318 313 310 314 316 318 317 313 314 312 307 300 300 302 301 305 303 285 268 261 273 278 269 257 261 263 261 260 273 272 261 258 267 277 278 280 278 273 267 261 258 256 253 244 227 223 215 213 215 213 207 205 200 203 203 194 184 173 166 162 158 159 159 154